TimeCST,TemperatureF,Dew PointF,Humidity,Sea Level PressureIn,VisibilityMPH,Wind Direction,Wind SpeedMPH,Gust SpeedMPH,PrecipitationIn,Events,Conditions,WindDirDegrees,DateUTC
12:15 AM,19.4,15.8,86,30.08,4.0,Calm,Calm,-,N/A,,Overcast,0,2013-01-03 06:15:00
12:35 AM,19.4,15.8,86,30.08,4.0,Calm,Calm,-,N/A,,Overcast,0,2013-01-03 06:35:00
12:55 AM,19.4,15.8,86,30.08,4.0,Calm,Calm,-,N/A,,Overcast,0,2013-01-03 06:55:00
1:15 AM,19.4,15.8,86,30.08,4.0,Calm,Calm,-,N/A,Snow,Light Snow,0,2013-01-03 07:15:00
1:35 AM,19.4,15.8,86,30.09,4.0,Calm,Calm,-,N/A,Snow,Light Snow,0,2013-01-03 07:35:00
1:55 AM,19.4,15.8,86,30.09,4.0,Calm,Calm,-,N/A,Snow,Light Snow,0,2013-01-03 07:55:00
2:15 AM,19.4,15.8,86,30.10,4.0,West,3.5,-,N/A,Snow,Light Snow,280,2013-01-03 08:15:00
2:35 AM,19.4,17.6,93,30.10,4.0,West,3.5,-,N/A,Snow,Light Snow,280,2013-01-03 08:35:00
2:55 AM,19.4,17.6,93,30.11,4.0,WNW,5.8,-,N/A,,Overcast,290,2013-01-03 08:55:00
3:15 AM,21.2,17.6,86,30.11,4.0,West,6.9,-,N/A,Snow,Light Snow,280,2013-01-03 09:15:00
3:35 AM,21.2,17.6,86,30.11,7.0,West,6.9,-,N/A,Snow,Light Snow,280,2013-01-03 09:35:00
3:55 AM,21.2,15.8,80,30.11,7.0,West,9.2,-,N/A,Snow,Light Snow,280,2013-01-03 09:55:00
4:15 AM,19.4,15.8,86,30.12,7.0,West,10.4,-,N/A,Snow,Light Snow,270,2013-01-03 10:15:00
4:35 AM,19.4,15.8,86,30.13,10.0,West,10.4,-,N/A,,Overcast,270,2013-01-03 10:35:00
4:55 AM,19.4,15.8,86,30.14,7.0,West,6.9,-,N/A,,Overcast,280,2013-01-03 10:55:00
5:15 AM,19.4,14.0,80,30.14,10.0,WNW,6.9,-,N/A,,Overcast,290,2013-01-03 11:15:00
5:34 AM,19.4,14.0,80,30.15,7.0,WNW,8.1,-,N/A,Snow,Light Snow,290,2013-01-03 11:34:00
5:55 AM,19.4,14.0,80,30.16,7.0,WNW,10.4,-,N/A,,Overcast,290,2013-01-03 11:55:00
6:15 AM,17.6,12.2,79,30.17,7.0,WNW,10.4,-,N/A,Snow,Light Snow,290,2013-01-03 12:15:00
6:34 AM,17.6,12.2,79,30.17,7.0,WNW,8.1,-,N/A,Snow,Light Snow,290,2013-01-03 12:34:00
6:55 AM,17.6,12.2,79,30.18,7.0,WNW,9.2,-,N/A,Snow,Light Snow,290,2013-01-03 12:55:00
7:34 AM,17.6,12.2,79,30.19,5.0,WNW,9.2,-,N/A,Snow,Light Snow,290,2013-01-03 13:34:00
7:55 AM,17.6,12.2,79,30.19,5.0,WNW,10.4,-,N/A,Snow,Light Snow,290,2013-01-03 13:55:00
8:15 AM,17.6,12.2,79,30.20,5.0,West,9.2,-,N/A,Snow,Light Snow,280,2013-01-03 14:15:00
8:35 AM,17.6,12.2,79,30.21,7.0,WNW,10.4,-,N/A,,Overcast,290,2013-01-03 14:35:00
8:55 AM,17.6,12.2,79,30.22,5.0,WNW,5.8,-,N/A,Snow,Light Snow,290,2013-01-03 14:55:00
9:15 AM,15.8,10.4,79,30.22,3.0,WNW,9.2,-,N/A,Snow,Light Snow,290,2013-01-03 15:15:00
9:35 AM,15.8,10.4,79,30.23,2.0,WNW,11.5,-,N/A,Snow,Light Snow,290,2013-01-03 15:35:00
9:55 AM,15.8,10.4,79,30.24,2.0,WNW,10.4,-,N/A,Snow,Light Snow,300,2013-01-03 15:55:00
10:15 AM,15.8,10.4,79,30.24,1.5,West,11.5,-,N/A,Snow,Light Snow,280,2013-01-03 16:15:00
10:35 AM,17.6,10.4,73,30.25,3.0,WNW,11.5,-,N/A,Snow,Light Snow,290,2013-01-03 16:35:00
10:55 AM,15.8,8.6,73,30.25,4.0,West,9.2,-,N/A,Snow,Light Snow,280,2013-01-03 16:55:00
11:15 AM,15.8,8.6,73,30.25,4.0,West,10.4,-,N/A,Snow,Light Snow,270,2013-01-03 17:15:00
11:35 AM,15.8,8.6,73,30.24,4.0,West,9.2,-,N/A,Snow,Light Snow,280,2013-01-03 17:35:00
11:55 AM,15.8,8.6,73,30.24,5.0,West,12.7,-,N/A,Snow,Light Snow,270,2013-01-03 17:55:00
12:15 PM,15.8,8.6,73,30.23,5.0,West,11.5,-,N/A,,Haze,280,2013-01-03 18:15:00
12:35 PM,15.8,8.6,73,30.23,7.0,West,11.5,-,N/A,,Mostly Cloudy,280,2013-01-03 18:35:00
12:55 PM,17.6,8.6,68,30.23,10.0,WNW,10.4,-,N/A,,Scattered Clouds,290,2013-01-03 18:55:00
1:15 PM,17.6,8.6,68,30.22,7.0,West,11.5,-,N/A,,Scattered Clouds,280,2013-01-03 19:15:00
1:35 PM,15.8,6.8,68,30.22,7.0,West,10.4,-,N/A,Snow,Light Snow,270,2013-01-03 19:35:00
1:55 PM,15.8,6.8,68,30.23,10.0,West,10.4,-,N/A,,Scattered Clouds,280,2013-01-03 19:55:00
2:15 PM,15.8,6.8,68,30.23,10.0,West,9.2,-,N/A,,Clear,270,2013-01-03 20:15:00
2:35 PM,15.8,6.8,68,30.24,10.0,West,11.5,-,N/A,,Clear,270,2013-01-03 20:35:00
2:55 PM,15.8,6.8,68,30.24,10.0,West,11.5,-,N/A,,Clear,280,2013-01-03 20:55:00
3:15 PM,15.8,6.8,68,30.24,10.0,West,9.2,-,N/A,,Clear,280,2013-01-03 21:15:00
3:35 PM,14.0,5.0,67,30.24,10.0,West,10.4,-,N/A,,Clear,270,2013-01-03 21:35:00
3:55 PM,12.2,5.0,73,30.25,10.0,West,11.5,-,N/A,,Clear,280,2013-01-03 21:55:00
4:15 PM,12.2,5.0,73,30.25,10.0,West,9.2,-,N/A,,Clear,280,2013-01-03 22:15:00
4:35 PM,12.2,3.2,67,30.25,7.0,West,8.1,-,N/A,,Clear,280,2013-01-03 22:35:00
4:54 PM,10.4,3.2,73,30.24,10.0,West,5.8,-,N/A,,Clear,280,2013-01-03 22:54:00
5:15 PM,10.4,3.2,73,30.25,10.0,West,5.8,-,N/A,,Clear,280,2013-01-03 23:15:00
5:35 PM,8.6,3.2,79,30.25,10.0,WNW,3.5,-,N/A,,Clear,290,2013-01-03 23:35:00
5:54 PM,8.6,1.4,73,30.24,10.0,West,4.6,-,N/A,,Clear,280,2013-01-03 23:54:00
6:15 PM,8.6,1.4,73,30.24,10.0,Calm,Calm,-,N/A,,Clear,0,2013-01-04 00:15:00
6:35 PM,8.6,1.4,73,30.24,10.0,Calm,Calm,-,N/A,,Clear,0,2013-01-04 00:35:00
6:54 PM,6.8,1.4,79,30.24,10.0,Calm,Calm,-,N/A,,Clear,0,2013-01-04 00:54:00
7:15 PM,6.8,1.4,79,30.23,10.0,Calm,Calm,-,N/A,,Clear,0,2013-01-04 01:15:00
7:35 PM,6.8,1.4,79,30.22,10.0,Calm,Calm,-,N/A,,Clear,0,2013-01-04 01:35:00
7:54 PM,3.2,1.4,92,30.22,7.0,Calm,Calm,-,N/A,,Clear,0,2013-01-04 01:54:00
8:15 PM,5.0,1.4,85,30.20,10.0,West,3.5,-,N/A,,Clear,260,2013-01-04 02:15:00
8:35 PM,6.8,3.2,85,30.20,10.0,Calm,Calm,-,N/A,,Clear,0,2013-01-04 02:35:00
8:55 PM,10.4,6.8,85,30.18,10.0,West,6.9,-,N/A,,Clear,270,2013-01-04 02:55:00
9:15 PM,12.2,6.8,79,30.17,10.0,West,6.9,-,N/A,,Clear,270,2013-01-04 03:15:00
9:35 PM,12.2,8.6,85,30.17,10.0,WSW,10.4,-,N/A,,Clear,250,2013-01-04 03:35:00
9:55 PM,12.2,8.6,85,30.17,10.0,WSW,9.2,-,N/A,,Clear,240,2013-01-04 03:55:00
10:15 PM,12.2,8.6,85,30.16,10.0,SW,4.6,-,N/A,,Clear,230,2013-01-04 04:15:00
10:35 PM,12.2,8.6,85,30.15,10.0,Calm,Calm,-,N/A,,Clear,0,2013-01-04 04:35:00
10:55 PM,8.6,6.8,92,30.15,10.0,Calm,Calm,-,N/A,,Clear,0,2013-01-04 04:55:00
11:15 PM,8.6,6.8,92,30.15,7.0,Calm,Calm,-,N/A,,Clear,0,2013-01-04 05:15:00
11:35 PM,8.6,5.0,85,30.14,10.0,Calm,Calm,-,N/A,,Clear,0,2013-01-04 05:35:00
11:55 PM,10.4,6.8,85,30.13,10.0,Calm,Calm,-,N/A,,Clear,0,2013-01-04 05:55:00